This is the latest recevied weather packets stored in our database for station/object F8KHU-13. If no packets are shown the sender has not sent any weather packets the latest 10 day(s).
| Time | Temp. | Humidity | Pressure | Rain* | Wind** | Luminosity | Snow |
|---|---|---|---|---|---|---|---|
| 1788419422 | 17.78° C | 30% | 1019.6 hPa | 0 mm | - | 0 W/m² | - |
| 1788418564 | 17.78° C | 30% | 1019.5 hPa | 0 mm | - | 0 W/m² | - |
| 1788418544 | 17.78° C | 30% | 1019.5 hPa | 0 mm | - | 0 W/m² | - |
| 1788418523 | 17.78° C | 30% | 1019.5 hPa | 0 mm | - | 0 W/m² | - |
| 1788417664 | 17.78° C | 30% | 1019.5 hPa | 0 mm | - | 0 W/m² | - |
| 1788417644 | 17.78° C | 30% | 1019.5 hPa | 0 mm | - | 0 W/m² | - |
| 1788416744 | 17.78° C | 30% | 1019.4 hPa | 0 mm | - | 0 W/m² | - |
| 1788415864 | 17.78° C | 30% | 1019.3 hPa | 0 mm | - | 0 W/m² | - |
| 1788415844 | 16.67° C | 30% | 1019.3 hPa | 0 mm | - | 0 W/m² | - |
| 1788415824 | 16.67° C | 30% | 1019.2 hPa | 0 mm | - | 0 W/m² | - |
| 1788414964 | 17.22° C | 30% | 1019.3 hPa | 0 mm | - | 0 W/m² | - |
| 1788414924 | 17.22° C | 30% | 1019.2 hPa | 0 mm | - | 0 W/m² | - |
| 1788414064 | 16.67° C | 30% | 1019 hPa | 0 mm | - | 0 W/m² | - |
| 1788414044 | 16.67° C | 30% | 1019 hPa | 0 mm | - | 0 W/m² | - |
| 1788414024 | 16.67° C | 30% | 1019 hPa | 0 mm | - | 0 W/m² | - |
| 1788413165 | 16.67° C | 30% | 1019.1 hPa | 0 mm | - | 0 W/m² | - |
| 1788412246 | 16.67° C | 29% | 1019.3 hPa | 0 mm | - | 0 W/m² | - |
| 1788412226 | 16.67° C | 29% | 1019.3 hPa | 0 mm | - | 0 W/m² | - |
| 1788411366 | 16.67° C | 29% | 1019.1 hPa | 0 mm | - | 0 W/m² | - |
| 1788411328 | 16.67° C | 29% | 1019.2 hPa | 0 mm | - | 0 W/m² | - |
| 1788386163 | 18.89° C | 28% | 1020.6 hPa | 0 mm | - | 0 W/m² | - |
| 1788385264 | 19.44° C | 28% | 1020.5 hPa | 0 mm | - | 0 W/m² | - |
| 1788385243 | 19.44° C | 28% | 1020.5 hPa | 0 mm | - | 0 W/m² | - |
| 1788385223 | 19.44° C | 28% | 1020.5 hPa | 0 mm | - | 0 W/m² | - |
| 1788384364 | 19.44° C | 28% | 1020.5 hPa | 0 mm | - | 0 W/m² | - |
* Rain latest hour (hover to see other rain measurements)
** Current wind speed in m/s (hover to see current wind gust speed)